Theta_e
321 322 323 321 316 316 319 317 317 316 317 315 310 314 316 316 318 316 321 327 329 329 331 334 335 335 336 338 335 334 336 336 335 336 334 334 333 332 332 333 333 334 333 333 332 331 331 331 330
321 322 321 314 319 316 313 317 318 314 315 313 314 315 317 317 317 318 324 327 328 329 331 334 334 335 335 335 334 334 336 335 334 334 333 332 331 331 331 331 331 332 332 331 329 326 324 324 324
320 320 318 316 314 313 315 315 315 314 313 314 315 313 315 316 314 317 323 327 329 331 331 332 332 335 335 335 335 335 335 334 333 332 331 331 331 329 327 325 326 329 329 326 322 318 315 315 316
319 314 309 319 320 318 316 316 312 315 314 311 313 314 311 314 316 317 322 327 328 331 331 329 329 335 335 335 335 335 334 332 331 330 331 330 327 324 320 318 322 322 320 318 314 309 305 305 305
315 309 312 316 315 314 312 312 311 314 314 313 313 313 313 312 314 316 321 326 326 329 329 326 326 333 333 334 334 333 332 331 330 329 329 327 323 320 318 317 318 316 314 313 312 312 312 308 303
312 309 316 315 313 313 312 311 312 313 312 312 313 313 311 311 312 316 320 325 325 325 326 326 326 332 332 333 332 330 330 330 329 328 326 322 320 318 316 316 315 315 313 314 313 310 307 302 300
314 313 316 313 314 314 315 309 313 313 313 312 311 314 311 309 312 316 320 325 324 323 323 323 325 329 331 332 328 330 328 328 327 325 321 319 317 316 315 314 314 314 314 311 306 302 300 299 298
310 312 315 313 314 315 314 311 311 312 313 308 309 313 313 310 311 315 320 323 323 323 322 321 324 326 326 328 328 328 328 326 323 319 317 314 314 313 312 312 313 313 310 301 298 298 297 297 297
308 311 311 313 313 315 312 313 311 310 311 310 309 310 309 309 312 315 318 320 321 321 321 320 321 323 322 323 325 325 326 322 318 316 314 311 308 307 305 308 310 310 305 299 298 297 297 297 296
312 308 309 308 310 313 313 312 313 313 311 310 310 308 308 307 311 313 314 315 318 319 320 319 318 319 320 319 320 321 323 318 315 313 311 306 301 301 303 306 305 303 300 298 297 297 296 296 296
312 313 310 311 310 312 313 312 310 311 311 308 310 310 305 304 307 310 312 314 316 317 318 318 317 317 317 316 316 316 317 315 312 309 307 301 299 299 301 303 301 299 297 297 296 296 296 296 295
315 312 312 313 313 314 313 310 311 309 314 310 307 308 305 303 302 306 309 312 313 314 316 316 316 315 315 314 313 312 312 311 309 306 304 301 297 298 300 300 297 295 295 295 295 296 296 295 295
314 313 313 311 311 311 311 311 311 310 310 307 306 305 305 304 303 305 307 309 310 311 313 315 315 314 313 313 312 311 310 308 306 305 302 299 297 297 297 297 296 296 295 295 295 296 296 295 295
311 312 311 310 311 311 313 313 311 310 307 307 306 305 303 303 304 305 304 305 306 308 310 312 313 313 312 311 310 308 308 307 305 302 300 299 297 297 297 296 296 296 295 295 295 295 295 295 294
312 312 308 307 309 310 309 311 309 311 309 307 306 304 305 303 304 304 307 306 307 307 307 308 310 312 312 310 309 307 305 305 304 300 299 299 298 297 297 296 296 295 294 294 294 294 294 294 294
310 309 310 308 308 309 310 310 311 307 306 307 306 305 304 304 303 306 309 308 307 307 307 306 306 308 310 310 308 306 303 303 302 299 298 298 298 297 297 296 295 295 294 293 294 294 294 294 294
306 308 307 307 307 309 308 309 309 308 307 306 305 305 306 306 304 306 309 309 308 309 307 306 305 305 306 307 307 305 302 301 301 299 298 298 298 298 296 296 295 294 294 293 293 293 293 293 293
308 306 306 306 308 307 309 309 308 309 307 308 309 308 306 308 309 311 310 310 309 308 307 306 305 303 304 304 303 302 302 301 300 298 298 299 298 297 297 295 294 294 293 292 293 293 293 293 293
307 305 305 306 307 309 308 308 308 309 309 309 309 309 307 308 309 309 309 309 308 306 306 305 304 303 301 300 299 298 300 300 300 298 298 299 298 297 297 295 294 293 293 293 292 292 292 292 292
307 308 307 308 307 305 306 308 308 307 308 309 309 309 309 309 307 307 306 307 307 308 306 304 303 301 301 300 299 299 298 298 300 299 298 298 298 297 296 295 294 293 293 292 292 292 291 291 290
306 307 308 308 307 305 305 309 307 307 306 308 308 308 307 307 307 307 304 303 305 305 305 304 303 302 301 300 298 298 298 298 297 296 297 298 298 297 296 295 293 293 292 292 292 291 291 291 289
309 306 307 308 308 309 307 310 309 311 310 306 307 306 304 304 304 303 303 302 304 306 306 304 303 302 300 299 297 297 298 297 297 296 297 298 298 297 296 294 293 292 292 291 291 291 291 291 290
308 308 307 307 307 307 308 308 311 308 308 307 306 305 304 303 303 303 302 303 305 306 305 305 303 301 299 299 298 297 298 298 298 296 295 295 297 297 296 294 293 292 291 291 291 290 290 290 291
307 309 307 304 306 310 308 309 309 307 309 309 308 306 305 303 302 301 301 301 302 303 302 301 301 300 299 298 298 297 297 297 297 295 295 294 295 296 295 294 293 292 291 291 290 290 290 290 290
307 307 309 309 310 312 307 308 311 309 307 308 308 306 304 302 300 299 301 300 300 301 300 298 298 298 297 297 297 296 297 297 296 296 294 293 293 294 295 294 293 292 291 291 290 290 289 289 289
306 307 311 312 310 314 307 309 311 307 307 305 305 304 303 301 299 301 300 298 299 299 299 297 296 296 297 297 296 296 296 296 296 296 295 294 295 295 294 295 293 292 291 290 290 289 289 288 288
306 308 307 311 300 306 312 311 309 306 306 306 307 306 302 301 300 301 300 300 300 299 298 296 296 296 296 296 297 296 296 296 296 296 295 295 295 295 294 294 293 293 292 290 289 288 288 288 287
306 305 310 309 315 314 313 311 313 311 311 308 304 302 301 300 300 300 299 300 302 300 300 298 297 297 297 296 296 295 296 296 295 295 295 295 295 295 294 293 293 292 291 290 289 288 287 287 287
306 307 307 307 312 318 319 316 313 310 308 307 305 305 304 304 303 300 299 297 297 297 298 297 296 295 295 295 295 294 294 294 294 294 295 295 295 294 294 293 292 291 290 290 289 288 287 287 286
307 311 310 315 314 310 313 315 312 311 310 307 306 302 300 298 297 296 296 295 294 294 294 295 294 295 296 296 295 294 293 294 294 294 294 294 293 293 293 293 291 290 290 289 288 287 287 286 285
Wind_Speed
0 2 2 3 4 5 4 6 2 3 2 2 7 5 7 4 6 5 3 20 11 28 24 20 17 18 20 18 16 14 14 14 12 10 7 8 8 7 8 7 7 10 7 4 3 6 7 8 8
1 2 3 2 4 2 5 4 5 6 1 4 3 3 1 6 2 3 4 20 15 29 25 22 18 17 19 19 17 17 17 14 12 13 11 10 9 9 9 9 8 8 7 6 5 3 2 2 3
0 2 3 4 3 4 5 5 4 2 2 2 2 1 2 4 2 4 9 22 20 28 26 24 21 16 16 16 17 18 15 14 14 13 13 11 11 10 9 7 7 8 8 7 4 1 0 1 2
1 5 4 3 6 7 7 5 3 2 2 4 1 5 4 5 5 5 12 25 24 27 27 25 23 21 21 21 20 20 17 15 14 14 14 12 12 9 8 8 9 8 7 4 3 2 2 2 1
5 3 2 2 5 6 5 6 4 3 2 1 3 4 5 3 9 6 13 25 26 27 26 24 22 23 21 22 22 22 17 15 15 15 14 13 12 11 10 10 10 9 8 7 8 8 8 5 4
4 3 3 3 5 6 6 5 4 4 2 1 2 2 6 4 7 9 16 25 24 25 26 24 24 22 21 21 22 20 18 18 17 16 15 13 12 11 11 11 11 10 10 10 9 8 7 6 4
5 3 3 3 5 6 4 4 3 3 2 6 2 2 5 3 9 11 17 22 23 23 25 25 25 22 20 20 22 21 20 19 17 17 16 14 14 13 12 12 12 11 11 10 9 7 5 4 4
5 4 1 4 2 6 3 2 1 5 6 2 5 5 6 0 11 15 19 21 22 24 24 26 27 26 25 23 22 21 23 22 21 19 19 18 17 16 16 15 14 13 12 9 7 6 4 3 3
3 3 2 5 5 5 1 1 2 1 2 3 7 5 3 3 14 18 20 22 25 27 28 27 28 27 26 26 26 25 25 24 22 21 22 21 20 20 18 17 15 14 11 8 6 5 3 3 2
4 4 8 6 5 5 3 4 4 2 4 5 6 7 6 10 19 22 22 27 31 33 34 32 31 30 29 28 27 28 27 25 24 25 24 22 20 19 19 19 15 13 11 9 7 5 4 4 4
5 6 5 6 8 5 4 4 4 3 8 10 9 8 7 11 17 19 23 27 39 37 36 37 34 33 32 31 30 30 29 28 26 25 23 22 21 22 22 21 18 15 12 10 9 8 6 5 4
3 9 6 4 3 2 4 5 5 8 19 7 13 7 5 10 12 22 24 34 36 35 38 39 37 36 35 33 34 33 32 31 30 28 26 26 24 23 22 20 17 14 12 11 9 8 6 5 4
5 5 6 7 6 8 5 14 8 10 20 9 8 8 11 10 16 25 32 31 33 36 38 40 41 41 39 37 36 35 34 34 32 30 29 28 27 25 23 20 18 15 13 12 10 8 6 4 3
3 4 6 7 6 7 7 17 4 13 11 11 8 12 12 12 18 17 27 36 38 39 42 40 43 44 42 42 41 40 37 36 33 32 32 31 28 26 25 23 21 18 16 13 11 8 6 5 3
2 7 8 7 7 8 7 12 10 21 3 13 12 11 11 13 15 25 35 37 41 44 41 44 44 45 47 46 44 42 41 38 36 35 34 32 30 29 27 25 23 20 17 15 13 10 7 4 3
3 1 5 2 7 2 8 9 26 11 6 14 12 12 9 13 14 31 36 38 37 39 44 43 44 47 49 50 48 46 43 41 40 38 37 34 33 31 29 27 25 22 19 16 14 11 8 5 2
2 5 7 11 12 5 8 9 16 4 6 11 11 11 11 13 13 27 36 38 37 40 41 44 45 47 50 51 50 48 46 43 42 41 39 37 35 33 32 30 26 24 22 19 16 13 9 6 2
9 5 7 7 4 5 6 15 11 20 5 15 18 15 15 19 26 32 29 34 35 37 39 42 44 46 47 47 47 46 45 44 43 43 41 39 38 36 34 31 28 27 24 21 18 14 10 7 2
3 6 8 9 8 3 15 18 18 19 20 22 21 20 20 21 24 28 25 26 28 31 34 40 42 45 45 43 42 39 49 50 48 47 45 43 41 39 36 34 31 29 27 23 20 16 12 8 4
9 13 14 14 16 5 14 22 16 17 19 27 24 21 22 19 16 17 17 19 24 30 34 37 42 43 47 46 46 31 36 43 52 52 50 47 44 40 38 37 35 33 29 27 25 21 15 10 7
8 6 16 15 6 5 9 14 12 9 14 21 23 20 15 16 18 19 10 10 18 26 31 37 41 44 47 44 38 35 28 26 39 42 47 48 47 45 43 40 38 35 33 31 28 24 18 13 9
19 11 14 9 4 5 4 10 16 22 20 10 16 10 10 11 9 8 9 8 16 28 30 32 36 40 42 42 39 42 36 28 40 43 49 53 49 47 46 43 41 39 37 33 30 26 23 18 14
10 3 6 2 4 4 4 4 2 3 5 11 10 13 10 7 6 10 10 14 19 20 24 30 35 38 41 45 44 40 34 34 31 33 40 46 48 47 46 43 41 40 39 36 32 29 27 24 20
4 2 3 4 2 6 13 11 3 5 5 4 5 7 5 9 9 8 10 12 17 18 19 22 30 33 36 40 42 45 38 31 30 35 37 41 45 48 46 45 44 42 40 38 34 31 28 26 22
2 5 4 4 0 9 2 6 12 3 8 7 9 9 8 5 8 10 12 13 22 20 15 15 22 27 29 33 35 37 37 36 37 38 35 39 42 47 52 50 48 47 44 40 38 36 32 29 28
6 8 6 8 5 13 1 8 6 9 6 6 1 6 4 7 6 8 9 9 18 18 12 11 16 21 25 31 35 33 36 35 37 39 39 41 44 48 50 53 50 48 44 41 39 36 34 32 29
4 6 3 2 2 3 11 19 9 6 1 2 4 4 6 9 8 10 9 12 16 15 12 11 14 18 22 30 35 39 41 41 40 39 40 40 40 42 45 50 53 50 47 44 41 39 37 33 31
6 2 1 2 2 6 12 7 15 11 17 14 8 7 11 9 11 9 7 8 20 20 15 13 15 20 23 27 32 36 41 44 44 41 41 42 41 41 42 45 50 52 50 48 45 43 39 36 34
2 3 4 3 5 9 11 13 14 10 2 6 3 7 9 14 20 19 18 26 28 31 33 26 23 21 23 26 28 32 35 38 39 41 43 45 44 43 44 44 47 51 52 51 49 47 44 41 38
8 10 11 12 10 10 17 23 25 19 15 9 19 18 16 16 15 14 16 24 27 29 31 30 30 29 29 28 29 32 32 33 37 41 45 46 46 45 45 45 45 48 52 54 53 52 49 47 44
Wind_Direction
316 314 300 35 46 59 270 262 260 258 248 162 126 150 195 172 169 211 295 179 168 176 169 170 179 183 186 186 183 182 173 173 170 166 161 148 139 129 123 128 134 148 117 145 131 75 70 65 60
348 339 50 77 93 48 268 254 234 234 273 122 136 140 160 245 235 264 175 181 175 176 173 171 173 185 188 196 188 181 179 180 178 189 181 164 157 149 133 128 133 132 126 122 113 106 84 78 69
33 22 83 94 114 192 226 224 233 253 175 173 248 226 208 226 238 222 194 178 168 177 180 180 174 179 176 182 182 181 181 187 191 193 182 168 159 157 161 164 155 142 139 131 133 145 157 308 282
357 21 37 103 227 251 219 249 230 286 264 232 201 271 278 231 179 205 189 179 174 179 184 186 179 181 176 181 179 181 181 188 190 186 180 175 176 182 178 172 158 163 167 162 150 136 103 112 217
47 56 48 318 262 264 254 265 184 207 273 202 162 274 259 249 217 214 189 181 181 182 188 191 185 186 194 191 191 192 185 194 192 189 179 181 172 169 168 155 153 149 140 129 117 107 102 104 85
40 93 39 265 262 273 273 241 167 198 222 242 180 277 246 245 222 199 185 185 187 187 189 194 191 191 196 198 199 197 196 197 191 185 183 177 171 163 158 151 144 139 129 123 119 114 106 94 87
114 90 226 254 269 303 263 138 193 194 223 252 152 230 264 258 207 191 183 187 189 192 194 196 195 195 196 194 197 195 197 191 185 185 181 175 171 163 158 150 142 138 133 131 125 115 108 92 72
107 94 278 250 264 275 311 213 215 181 253 68 173 240 263 287 185 182 180 190 196 199 202 200 199 199 201 192 193 192 193 192 190 186 185 183 173 168 162 158 152 148 148 147 147 134 127 100 84
134 62 251 253 183 252 188 287 227 136 286 220 209 217 234 188 172 174 181 193 200 205 207 206 205 205 203 199 197 191 197 196 193 190 193 189 180 180 171 168 164 158 157 156 148 137 127 91 74
111 145 226 214 208 243 288 208 267 297 247 252 277 248 220 185 181 180 189 200 205 208 208 209 209 208 205 204 200 196 200 199 198 198 199 192 186 182 174 176 171 168 170 164 159 149 140 113 89
176 208 214 243 229 266 268 273 218 177 274 213 225 243 186 192 203 207 210 207 213 213 212 210 211 211 209 206 203 203 203 204 204 205 203 193 188 185 183 185 184 180 175 169 161 152 140 125 106
218 243 218 257 209 270 247 301 249 183 256 200 225 240 169 198 208 213 217 221 222 220 219 215 213 212 212 212 209 208 207 207 207 207 203 199 194 192 191 191 188 182 180 175 165 156 143 124 100
217 238 234 240 259 256 286 254 238 247 261 247 245 238 232 220 223 226 227 233 231 229 226 222 217 215 214 213 214 212 212 212 212 208 206 203 203 200 197 195 195 192 189 184 179 171 155 136 92
210 254 270 278 245 238 206 269 147 252 265 271 222 241 237 225 228 231 233 236 232 232 232 227 222 220 217 216 216 216 216 217 215 213 211 209 209 206 203 202 201 199 195 191 185 178 167 145 117
300 310 309 222 238 230 164 294 224 251 217 270 266 253 255 239 232 229 238 232 234 236 234 230 226 223 221 220 220 219 220 218 217 215 212 211 209 208 209 208 206 202 198 194 187 186 182 167 138
293 182 307 250 149 268 158 249 274 250 234 270 268 279 263 260 235 241 247 246 244 239 235 232 227 224 222 222 222 221 222 220 218 216 213 212 212 212 211 210 209 204 202 198 196 195 194 187 173
333 243 229 304 205 134 186 248 265 266 194 268 279 273 279 282 270 259 261 256 248 246 238 232 227 225 222 222 222 222 223 222 221 219 216 215 214 214 214 213 210 206 205 203 200 200 203 202 201
226 226 251 248 296 178 224 252 272 286 241 254 268 271 263 265 266 269 266 266 261 253 241 235 230 225 223 220 219 220 221 221 224 222 220 218 217 216 215 214 212 210 207 204 203 205 203 208 210
182 233 247 256 262 266 262 265 264 269 285 271 264 267 264 258 269 276 270 267 256 250 237 231 226 222 214 207 204 209 214 217 219 220 221 220 219 217 216 214 211 211 211 210 206 203 203 199 191
250 261 267 274 265 221 268 274 269 257 253 261 268 270 266 278 280 276 265 250 240 245 237 231 230 220 215 207 207 207 209 216 218 218 218 217 218 218 217 216 213 212 210 207 207 204 196 195 183
226 230 259 263 310 253 298 278 236 269 255 262 268 260 274 271 277 283 292 268 255 244 239 235 228 221 217 209 200 202 202 214 216 217 220 218 217 215 215 216 216 214 213 212 210 208 205 190 183
268 223 255 267 348 262 2 296 293 276 265 248 269 260 252 255 273 296 289 275 254 266 251 240 233 225 219 210 198 196 200 199 210 209 214 217 216 215 216 215 213 213 214 214 213 211 211 201 185
239 206 243 188 206 328 216 250 359 84 259 265 263 268 263 295 287 300 301 289 294 275 264 246 232 224 218 211 206 201 210 210 208 202 210 215 213 215 216 215 216 215 214 215 213 210 211 211 201
89 67 45 48 76 269 199 200 13 153 204 311 295 263 341 349 336 325 294 307 331 323 288 252 231 225 218 213 208 207 209 209 205 197 201 208 213 212 214 216 217 217 218 215 214 215 214 214 214
141 95 309 317 355 251 290 224 236 233 233 207 253 295 334 348 351 342 357 342 333 322 296 252 231 218 214 214 214 214 212 212 209 206 199 198 205 211 214 214 215 216 217 217 215 213 213 216 214
186 170 173 233 246 287 76 248 257 211 234 235 65 250 298 6 335 347 337 318 323 314 303 258 234 221 219 218 221 223 223 221 220 221 212 210 211 213 216 216 216 217 217 216 217 217 216 213 217
174 178 220 287 36 285 269 279 279 249 218 287 56 231 10 322 322 320 327 316 318 323 330 288 253 244 232 225 224 224 227 224 223 223 223 222 222 220 219 219 217 216 217 217 217 217 216 215 216
171 214 37 356 235 257 277 292 260 303 297 309 357 7 314 297 306 297 328 339 344 343 348 310 269 251 245 241 238 235 230 229 227 225 225 226 227 224 222 220 220 218 217 215 214 216 216 215 215
148 233 228 296 213 238 259 267 270 263 325 300 311 317 314 336 352 5 8 18 19 13 8 352 327 305 289 274 259 246 241 238 232 230 231 231 229 225 223 222 220 218 217 217 214 215 214 213 215
194 232 232 248 257 238 250 252 287 296 297 335 20 33 34 25 10 9 9 8 15 10 7 5 2 353 337 308 287 269 255 246 240 238 237 235 233 229 225 221 219 219 218 219 216 213 212 210 213